TimePDT,TemperatureF,Dew PointF,Humidity,Sea Level PressureIn,VisibilityMPH,Wind Direction,Wind SpeedMPH,Gust SpeedMPH,PrecipitationIn,Events,Conditions,WindDirDegrees,DateUTC
12:53 AM,63.0,23.0,22,30.06,10.0,ENE,5.8,-,N/A,,Clear,70,2013-10-06 07:53:00
1:53 AM,55.9,27.0,33,30.06,10.0,East,5.8,-,N/A,,Clear,100,2013-10-06 08:53:00
2:53 AM,60.1,21.9,23,30.05,10.0,East,3.5,-,N/A,,Clear,90,2013-10-06 09:53:00
3:53 AM,60.1,21.9,23,30.04,10.0,NE,8.1,-,N/A,,Clear,50,2013-10-06 10:53:00
4:53 AM,57.9,19.9,23,30.05,10.0,NE,6.9,-,N/A,,Clear,50,2013-10-06 11:53:00
5:53 AM,57.9,19.0,22,30.06,10.0,ENE,6.9,-,N/A,,Clear,60,2013-10-06 12:53:00
6:53 AM,57.9,18.0,21,30.06,10.0,NE,6.9,-,N/A,,Clear,50,2013-10-06 13:53:00
7:53 AM,60.1,21.0,22,30.07,10.0,ENE,5.8,-,N/A,,Clear,60,2013-10-06 14:53:00
8:53 AM,66.0,25.0,21,30.08,10.0,ENE,4.6,-,N/A,,Clear,70,2013-10-06 15:53:00
9:53 AM,79.0,26.1,14,30.07,10.0,Calm,Calm,-,N/A,,Clear,0,2013-10-06 16:53:00
10:53 AM,82.9,10.0,6,30.06,10.0,ENE,5.8,-,N/A,,Clear,70,2013-10-06 17:53:00
11:53 AM,87.1,8.1,5,30.03,10.0,East,9.2,-,N/A,,Clear,90,2013-10-06 18:53:00
12:53 PM,90.0,12.0,6,30.01,10.0,Variable,4.6,-,N/A,,Clear,0,2013-10-06 19:53:00
1:53 PM,93.0,12.9,5,29.98,10.0,Variable,4.6,-,N/A,,Clear,0,2013-10-06 20:53:00
2:53 PM,91.9,9.0,5,29.96,10.0,Variable,3.5,-,N/A,,Clear,0,2013-10-06 21:53:00
3:53 PM,91.9,9.0,5,29.94,10.0,Variable,4.6,-,N/A,,Clear,0,2013-10-06 22:53:00
4:53 PM,91.9,10.0,5,29.92,10.0,Variable,3.5,-,N/A,,Clear,0,2013-10-06 23:53:00
5:53 PM,89.1,9.0,5,29.92,10.0,West,5.8,-,N/A,,Clear,270,2013-10-07 00:53:00
6:53 PM,84.0,14.0,7,29.93,10.0,West,6.9,-,N/A,,Clear,280,2013-10-07 01:53:00
7:53 PM,79.0,19.0,11,29.95,10.0,West,3.5,-,N/A,,Clear,280,2013-10-07 02:53:00
8:53 PM,75.0,24.1,15,29.96,10.0,Calm,Calm,-,N/A,,Clear,0,2013-10-07 03:53:00
9:53 PM,70.0,28.9,22,29.96,10.0,Calm,Calm,-,N/A,,Clear,0,2013-10-07 04:53:00
10:53 PM,68.0,30.0,24,29.96,10.0,ESE,3.5,-,N/A,,Clear,110,2013-10-07 05:53:00
11:53 PM,64.0,33.1,31,29.94,10.0,ENE,4.6,-,N/A,,Clear,70,2013-10-07 06:53:00